Wetbulb
59.00 61.45 60.99 60.56 60.03 59.66 59.74 59.33 58.49 57.28 56.79 56.53 55.82 54.96 53.58 52.87 52.10 51.48 50.79 51.24 51.06 51.14 51.46 52.66 53.29 53.85 54.61 47.55 44.89 51.41 57.23 56.42 50.58 49.66 48.07 47.40 45.86 45.91 42.96 44.21 44.77 43.41 43.52 43.62 44.36 43.42 43.17
57.10 58.50 59.67 60.35 59.90 59.89 59.90 59.42 58.61 57.41 56.52 56.10 55.47 54.60 53.74 52.70 52.08 51.38 50.64 51.16 51.14 51.05 51.06 52.21 53.20 53.56 51.16 41.63 50.54 51.64 50.21 49.91 49.16 47.96 46.48 47.33 46.02 46.23 43.62 42.92 41.89 43.20 42.88 43.58 44.21 43.10 43.29
55.07 56.48 57.11 57.40 59.49 59.45 59.55 58.64 58.39 57.61 56.72 56.20 55.67 54.55 53.76 52.94 52.19 51.12 50.53 50.88 51.47 50.99 51.12 52.13 53.16 54.40 49.25 46.16 51.27 51.89 49.96 49.55 49.42 48.44 45.87 47.75 48.17 45.38 44.65 41.86 44.61 43.96 41.18 42.59 42.60 42.54 42.18
54.23 54.92 55.26 55.61 56.38 56.60 58.45 58.30 58.08 57.93 57.09 56.52 56.01 54.66 53.43 53.22 52.31 51.30 50.65 51.08 50.93 50.20 51.49 52.88 52.91 54.19 45.56 52.85 52.98 48.43 49.54 48.95 49.38 49.33 48.11 48.64 49.41 47.02 45.18 45.63 42.70 40.47 40.87 38.65 41.75 41.62 41.70
54.23 54.14 54.82 55.33 55.26 55.34 55.24 57.73 57.86 57.93 57.46 56.72 56.01 54.72 53.41 52.65 51.88 50.85 50.85 50.72 50.63 50.78 52.05 51.92 52.80 51.72 42.57 52.71 48.05 48.57 49.22 46.32 47.90 48.73 48.77 48.41 48.18 45.11 44.28 41.15 39.25 39.57 37.17 37.10 38.76 41.76 39.90
52.45 52.86 53.38 54.10 54.41 54.81 54.89 55.32 56.66 57.32 57.32 56.80 56.21 55.00 53.66 52.47 51.34 50.52 49.99 49.93 50.96 51.27 51.43 51.69 51.27 46.14 46.46 45.03 47.52 47.54 49.02 47.90 45.99 47.05 45.91 45.53 45.50 42.50 42.22 40.14 34.88 36.12 35.88 36.17 36.51 39.54 39.52
51.20 51.56 51.82 52.22 53.44 54.06 54.39 54.74 55.13 56.31 56.76 56.72 56.21 55.14 53.82 52.70 51.40 50.22 47.78 49.85 46.26 45.86 47.71 45.89 44.59 42.77 45.21 47.74 48.01 46.68 48.11 46.10 45.85 44.58 40.52 42.76 40.21 37.81 38.55 39.12 38.13 36.44 34.91 34.96 38.08 39.41 37.30
51.87 52.07 51.23 51.46 52.40 52.86 52.85 54.51 54.66 54.47 56.15 56.39 56.19 55.04 53.92 52.37 50.76 50.08 48.33 43.96 46.40 47.49 43.85 46.15 45.33 46.32 46.75 47.42 42.40 44.99 48.06 42.84 42.04 38.88 40.78 39.44 37.15 39.41 39.17 38.25 36.48 35.54 34.38 35.53 36.88 38.25 36.92
51.98 52.25 52.11 51.51 51.77 52.23 52.67 53.84 54.38 53.94 53.94 55.83 55.69 54.74 53.62 51.23 48.87 46.19 45.74 44.66 50.47 49.36 42.30 44.64 45.41 45.03 44.92 45.56 42.51 42.92 45.71 43.25 40.34 38.26 38.62 37.41 38.87 39.61 37.65 35.93 34.53 35.55 33.63 33.63 33.05 36.81 39.12
51.30 51.70 52.12 51.66 51.73 52.29 52.95 53.47 53.68 53.84 53.43 53.92 55.27 54.24 52.01 47.67 43.10 43.91 40.94 48.15 49.82 48.24 37.82 40.90 38.97 42.35 44.39 44.99 40.52 45.37 46.17 43.09 39.96 37.36 38.46 38.02 39.28 36.99 36.37 33.98 35.01 32.83 35.26 34.57 34.35 33.88 32.51
51.03 51.14 51.23 51.75 51.83 51.92 52.04 52.67 53.34 53.41 52.99 53.14 54.19 53.52 49.12 50.53 43.21 39.51 44.76 47.28 47.76 44.72 26.71 40.91 39.69 46.63 44.73 40.74 41.43 41.35 45.24 42.84 38.75 38.32 38.57 36.46 36.59 36.02 34.47 33.75 35.30 33.36 36.51 35.49 35.31 33.91 33.85
50.49 50.64 50.89 51.25 51.36 51.25 51.36 51.77 52.27 52.07 52.25 52.62 53.41 53.03 48.19 46.35 45.67 45.28 47.67 48.23 44.80 28.32 28.23 35.36 39.13 38.56 38.64 39.93 40.08 42.09 42.14 44.82 43.55 38.58 38.62 37.06 39.59 37.94 36.22 36.25 35.92 36.70 36.43 36.25 35.66 34.67 29.86
49.93 50.21 50.48 50.48 50.69 50.86 51.27 51.29 51.42 51.50 51.50 51.96 52.61 52.82 47.29 47.15 42.92 46.46 47.69 40.94 26.51 23.31 38.64 33.56 34.90 38.11 37.75 36.61 37.61 39.34 38.43 37.69 36.02 32.37 32.64 34.90 35.46 38.00 37.85 34.06 36.28 36.31 34.89 31.55 29.03 29.33 29.00
49.30 49.55 49.89 50.19 50.36 50.50 50.76 50.84 50.54 50.86 50.93 51.18 51.49 50.38 48.78 47.00 47.68 47.35 42.01 33.06 22.60 29.94 34.00 37.66 37.73 37.50 35.01 37.25 37.15 37.79 37.01 34.95 37.07 36.16 34.72 31.38 28.06 35.25 36.98 34.17 32.27 33.14 33.19 29.98 20.53 25.94 28.49
48.58 49.11 49.37 49.63 50.08 50.27 50.37 50.37 50.47 50.17 50.33 50.14 50.57 48.29 44.63 46.09 47.63 45.68 35.52 25.92 29.35 33.55 36.10 35.76 35.74 33.29 33.97 36.40 36.30 36.61 36.47 36.13 37.03 37.97 33.07 31.57 29.56 36.15 35.92 36.36 35.95 32.37 32.94 34.51 27.07 30.35 26.69
47.89 48.45 48.87 49.20 49.35 49.33 49.51 49.90 49.44 49.21 49.50 49.67 46.10 41.70 41.27 46.89 47.43 41.36 33.38 33.42 33.45 36.92 37.87 36.92 30.74 34.42 31.87 33.77 33.75 35.04 34.44 37.62 35.58 38.12 39.83 34.44 28.25 34.65 34.73 37.30 36.47 35.20 36.41 29.33 31.06 21.72 20.88
46.70 47.12 48.18 48.58 48.59 48.60 49.08 49.32 49.40 48.70 48.62 49.50 42.71 36.11 41.76 47.17 44.73 35.32 29.86 33.76 33.65 39.04 39.10 35.01 33.26 32.61 34.47 32.66 34.95 34.09 33.94 35.74 38.24 36.93 39.05 36.03 33.31 30.85 33.12 31.51 32.48 32.38 31.18 31.53 31.61 30.41 24.89
46.26 47.13 47.83 47.59 47.64 47.87 48.16 48.57 48.28 47.57 48.12 47.63 40.96 33.44 42.75 44.77 31.68 32.88 31.91 35.92 37.73 37.74 39.79 37.54 37.20 35.16 34.77 35.26 33.07 33.49 32.47 35.89 39.89 38.88 33.82 35.68 32.63 27.86 29.77 34.09 35.89 35.09 32.32 31.76 28.10 25.47 29.64
46.43 46.49 45.70 45.89 47.08 47.47 47.67 47.43 46.37 46.65 48.18 45.31 37.75 33.79 42.99 41.40 29.83 29.64 35.34 34.53 36.86 34.79 36.14 36.75 35.32 37.62 38.74 34.29 30.65 34.49 34.46 37.43 39.37 38.05 35.13 35.14 31.29 23.50 25.82 30.91 34.14 32.11 33.44 33.08 31.38 30.98 27.14
45.49 44.73 44.76 44.87 46.12 46.26 46.40 46.43 46.58 48.24 49.61 45.77 34.99 28.00 31.28 35.76 38.27 35.10 33.92 34.30 33.45 37.43 35.49 36.83 35.41 37.43 35.30 34.61 36.28 32.61 31.96 35.23 38.52 38.26 38.56 37.34 30.62 28.42 26.47 28.20 32.57 28.00 30.49 32.22 30.34 27.75 29.16
43.86 44.56 43.52 45.10 43.14 47.38 48.31 48.73 51.03 51.13 48.81 44.76 37.83 32.15 36.71 28.34 31.96 36.79 37.01 35.57 33.18 31.41 35.14 35.96 33.32 35.48 34.58 30.38 31.68 31.40 33.13 34.16 36.98 37.22 36.19 34.93 27.24 28.60 29.95 30.15 29.97 29.83 29.38 30.37 28.36 30.58 26.44
44.88 43.42 42.86 43.84 43.41 48.70 52.11 50.69 50.19 48.73 48.38 41.30 34.25 34.55 38.29 36.70 36.17 34.95 34.15 33.22 33.18 32.64 32.13 31.60 33.60 35.24 36.02 31.85 33.38 30.21 33.33 34.16 32.83 34.67 34.27 33.48 26.86 29.09 26.10 29.92 30.04 28.22 30.18 30.42 30.49 31.92 32.57
44.43 42.73 42.44 44.16 43.09 43.58 44.50 47.21 47.65 47.82 45.91 37.99 41.36 44.17 40.62 35.23 34.00 34.65 33.67 33.64 32.93 34.71 34.36 36.64 36.46 34.26 33.87 34.87 39.55 39.87 39.62 38.74 37.65 34.00 32.29 30.34 28.58 27.03 24.54 29.83 29.14 25.10 29.19 30.46 32.03 32.16 31.31
44.12 42.87 41.63 42.39 43.14 43.43 44.12 44.51 44.09 43.99 43.68 43.75 44.60 44.80 39.74 30.67 35.10 35.01 34.95 34.28 34.22 34.61 31.41 36.36 38.00 34.57 34.91 40.05 39.77 38.99 37.99 36.96 36.62 35.29 35.57 29.42 29.18 29.50 26.50 28.07 19.15 30.55 36.04 35.96 32.73 32.17 33.19
43.94 43.34 42.58 41.18 42.84 42.71 44.08 44.32 44.40 44.29 44.39 41.99 43.19 42.51 38.99 32.00 34.66 33.84 34.28 34.11 35.20 36.38 33.80 33.96 34.91 37.77 40.71 39.05 33.26 29.68 29.56 29.55 30.50 32.70 32.57 33.87 31.38 27.75 24.77 25.32 28.59 29.34 32.53 32.28 30.26 29.22 33.33
43.93 43.52 43.28 41.59 42.97 43.25 44.65 44.47 44.30 44.01 43.88 42.18 40.52 42.51 41.38 33.97 32.02 35.75 33.21 34.17 31.46 31.75 30.93 32.92 38.09 41.29 40.14 35.33 31.46 25.78 23.13 27.67 25.37 27.04 32.46 32.03 33.30 30.05 27.48 22.05 19.53 31.00 34.22 35.17 35.23 28.02 34.23
43.92 43.12 43.30 42.47 42.13 44.15 44.35 44.46 44.30 44.28 43.82 43.40 40.42 44.99 40.24 32.78 34.63 37.42 33.72 32.85 36.78 35.80 31.96 33.66 35.16 35.45 39.22 33.33 28.85 27.10 25.97 32.20 25.21 24.61 23.95 25.83 27.56 26.62 26.48 24.89 27.77 34.31 34.44 36.19 26.07 28.82 34.18
43.50 42.99 42.95 42.71 43.55 43.75 43.66 44.25 44.73 43.66 42.86 44.27 40.37 43.20 40.88 34.30 33.92 37.41 37.97 35.96 37.91 37.55 32.74 35.53 34.08 34.38 34.54 30.66 29.60 29.19 28.14 30.32 29.71 31.67 28.66 26.77 26.14 25.25 27.35 24.17 21.83 35.61 34.04 29.77 34.00 35.76 35.35
43.19 43.55 42.75 43.14 43.25 43.04 43.45 45.04 45.03 44.41 44.08 43.54 38.49 42.90 43.95 37.21 34.53 39.40 39.35 40.40 42.09 42.76 38.13 37.13 37.51 36.03 37.05 33.39 33.60 31.95 29.28 31.23 30.15 25.66 32.97 27.43 32.01 29.63 30.52 30.88 36.46 37.37 36.38 37.49 36.66 34.78 35.99
MSLP
1017.10 1016.89 1016.97 1017.19 1017.24 1017.58 1018.01 1018.12 1018.41 1018.87 1019.09 1019.34 1019.44 1019.79 1020.07 1020.11 1020.08 1019.98 1019.66 1019.66 1019.22 1019.04 1018.75 1018.50 1018.21 1017.54 1016.83 1015.25 1013.76 1014.43 1015.10 1014.88 1014.34 1014.18 1013.81 1013.24 1012.85 1012.71 1012.21 1012.38 1012.61 1012.39 1012.58 1012.89 1013.17 1013.40 1013.29
1016.89 1016.79 1016.92 1016.53 1016.84 1016.87 1017.22 1017.59 1017.85 1018.22 1018.43 1018.70 1019.04 1019.35 1019.45 1019.85 1020.02 1019.99 1019.54 1019.50 1019.29 1018.88 1018.44 1018.42 1018.13 1017.61 1016.15 1014.84 1014.28 1014.28 1014.65 1014.64 1014.14 1013.98 1013.86 1013.58 1013.10 1013.28 1013.06 1013.12 1013.23 1013.38 1013.29 1013.02 1013.11 1013.25 1013.17
1016.70 1016.81 1016.36 1016.77 1015.86 1016.36 1016.56 1016.67 1017.19 1017.52 1017.64 1018.01 1018.58 1018.78 1019.15 1019.59 1019.81 1019.62 1019.37 1019.33 1019.28 1018.85 1018.53 1018.19 1017.96 1017.24 1015.62 1014.44 1014.33 1014.30 1014.48 1014.33 1014.31 1014.14 1013.76 1013.95 1013.70 1013.56 1013.54 1013.60 1014.10 1013.92 1013.40 1012.82 1013.04 1013.28 1012.95
1016.10 1016.46 1016.69 1016.08 1016.37 1016.02 1015.97 1016.17 1016.33 1016.63 1017.08 1017.41 1017.91 1018.12 1018.39 1018.98 1019.36 1019.72 1019.23 1019.36 1019.12 1018.77 1018.48 1017.99 1017.90 1016.85 1014.47 1014.33 1014.33 1014.49 1014.28 1014.40 1014.53 1014.42 1014.22 1014.31 1014.16 1013.98 1013.87 1014.28 1014.08 1013.75 1013.47 1012.07 1012.71 1013.19 1013.10
1016.04 1015.60 1016.05 1015.99 1015.87 1015.87 1015.71 1015.75 1015.65 1016.01 1016.30 1016.57 1017.23 1017.59 1018.06 1018.28 1018.87 1019.16 1019.50 1019.00 1019.20 1018.23 1018.34 1017.91 1017.67 1016.24 1013.91 1014.40 1014.30 1014.15 1014.16 1014.15 1014.34 1014.52 1014.59 1014.67 1014.42 1014.12 1014.25 1013.56 1013.25 1013.19 1012.19 1012.39 1012.26 1012.85 1013.31
1015.55 1015.34 1015.34 1015.47 1015.58 1015.42 1015.56 1015.05 1015.41 1015.18 1015.80 1016.12 1016.55 1016.93 1017.36 1017.96 1018.20 1018.80 1019.05 1019.19 1018.54 1018.29 1017.79 1017.26 1017.08 1016.22 1014.08 1013.39 1013.73 1013.98 1014.36 1014.36 1014.17 1014.27 1014.46 1014.39 1014.17 1013.72 1013.69 1013.19 1012.31 1012.55 1012.97 1013.05 1012.87 1012.64 1013.08
1015.13 1014.80 1014.96 1014.93 1015.08 1015.11 1014.99 1015.03 1014.58 1014.63 1014.75 1015.56 1015.96 1016.45 1016.83 1017.41 1018.21 1018.54 1019.27 1018.56 1018.13 1017.26 1016.54 1014.88 1014.22 1013.83 1013.45 1013.49 1013.98 1013.55 1013.95 1014.35 1014.31 1014.03 1013.69 1014.41 1013.78 1013.30 1013.95 1014.48 1014.72 1014.62 1014.20 1013.38 1013.11 1013.73 1013.49
1014.67 1014.44 1014.33 1014.46 1014.32 1014.30 1014.48 1014.39 1014.49 1014.39 1014.50 1014.44 1015.24 1015.89 1016.52 1017.09 1018.08 1018.56 1018.99 1017.25 1014.73 1015.25 1014.62 1014.32 1014.05 1013.65 1013.65 1013.19 1013.31 1013.42 1013.81 1013.84 1014.01 1013.53 1014.38 1014.49 1013.76 1014.99 1015.45 1015.64 1015.39 1015.17 1014.68 1013.81 1013.94 1013.96 1014.04
1013.81 1013.87 1013.74 1013.64 1013.72 1013.68 1013.62 1013.80 1013.87 1014.00 1014.30 1014.30 1014.46 1015.10 1016.14 1017.29 1017.98 1018.53 1017.81 1016.32 1015.18 1014.85 1014.67 1013.32 1012.92 1012.59 1012.96 1013.31 1012.67 1012.58 1013.34 1013.39 1013.46 1013.95 1014.21 1014.02 1014.77 1015.81 1015.92 1016.03 1015.83 1015.54 1015.34 1015.05 1015.08 1014.42 1013.18
1012.90 1012.88 1013.00 1012.95 1012.89 1012.98 1013.03 1013.06 1013.25 1013.38 1013.66 1013.80 1014.06 1014.71 1015.65 1016.98 1018.59 1018.34 1017.43 1016.33 1016.21 1015.22 1014.56 1012.09 1012.36 1011.66 1012.38 1012.48 1012.77 1012.56 1012.93 1013.08 1013.74 1013.96 1014.37 1014.86 1015.97 1016.11 1016.32 1016.37 1016.68 1015.96 1016.52 1016.22 1015.39 1014.76 1012.86
1012.00 1011.89 1012.09 1012.08 1012.11 1012.18 1012.22 1012.34 1012.42 1012.89 1013.17 1013.42 1013.74 1014.30 1014.86 1014.72 1016.56 1017.64 1017.01 1017.33 1017.39 1017.02 1014.28 1010.51 1011.28 1011.40 1011.29 1011.63 1011.91 1013.06 1013.35 1013.11 1013.09 1014.02 1014.68 1014.96 1015.83 1016.01 1016.20 1016.85 1017.28 1016.67 1016.97 1016.38 1015.67 1014.77 1013.94
1011.05 1011.10 1011.04 1011.11 1011.11 1011.34 1011.33 1011.47 1011.75 1012.30 1012.61 1013.10 1013.33 1014.08 1014.78 1015.86 1016.42 1017.03 1016.61 1017.35 1018.98 1018.88 1013.39 1011.04 1010.54 1010.91 1011.00 1011.43 1011.78 1012.59 1013.01 1013.33 1013.75 1014.39 1014.83 1015.47 1016.53 1016.55 1016.66 1017.16 1017.44 1017.52 1016.67 1015.76 1015.44 1014.59 1013.13
1009.98 1009.93 1010.01 1009.98 1010.11 1010.24 1010.33 1010.44 1010.77 1011.38 1011.98 1012.49 1012.81 1013.63 1013.87 1015.17 1015.39 1016.76 1016.42 1018.42 1019.82 1017.82 1012.62 1011.54 1010.23 1010.48 1010.68 1011.08 1011.55 1011.97 1012.50 1012.89 1012.90 1013.93 1014.55 1015.73 1016.25 1017.05 1017.39 1016.98 1017.43 1017.12 1015.97 1014.40 1013.99 1013.31 1012.10
1008.89 1008.84 1008.80 1008.79 1008.78 1008.90 1009.05 1009.44 1009.73 1010.40 1011.22 1011.85 1012.39 1013.34 1013.39 1014.11 1014.99 1015.63 1016.59 1017.85 1016.66 1014.86 1011.88 1010.89 1010.52 1010.29 1010.02 1011.02 1011.74 1011.73 1012.13 1012.62 1013.49 1013.40 1013.61 1014.48 1015.92 1016.57 1017.31 1017.40 1017.56 1017.45 1017.01 1015.94 1015.14 1013.68 1012.76
1007.73 1007.52 1007.50 1007.30 1007.30 1007.44 1007.67 1008.04 1008.47 1009.54 1010.46 1011.33 1012.20 1012.71 1013.27 1014.09 1014.79 1014.84 1016.39 1015.48 1013.68 1012.30 1011.11 1010.48 1010.79 1009.99 1010.18 1010.80 1011.42 1012.01 1012.12 1012.53 1013.06 1013.53 1013.64 1014.11 1015.48 1016.95 1017.39 1017.75 1018.10 1017.90 1017.49 1017.99 1017.24 1015.70 1014.29
1006.42 1006.20 1005.92 1005.65 1005.65 1005.75 1006.01 1006.43 1007.26 1008.41 1009.60 1010.83 1011.76 1012.53 1012.78 1013.35 1014.23 1014.82 1014.88 1013.32 1013.08 1011.46 1010.60 1009.36 1009.03 1009.63 1009.46 1009.97 1010.75 1011.28 1012.11 1012.91 1013.61 1013.99 1014.37 1014.79 1015.63 1016.85 1017.87 1017.95 1018.41 1018.06 1018.52 1018.24 1017.52 1016.21 1014.18
1004.98 1004.68 1004.16 1003.88 1003.85 1003.88 1004.07 1004.58 1005.52 1006.98 1008.56 1009.87 1011.11 1012.18 1012.38 1012.97 1014.24 1014.82 1013.02 1012.17 1012.06 1010.73 1009.52 1009.12 1009.38 1009.08 1008.70 1009.66 1010.12 1011.00 1011.85 1013.29 1013.50 1014.31 1014.62 1015.15 1015.30 1017.28 1018.11 1017.73 1017.30 1018.35 1018.18 1018.33 1018.18 1017.23 1015.52
1003.44 1002.78 1002.30 1002.25 1001.97 1001.69 1001.69 1002.13 1003.03 1005.07 1007.25 1009.00 1009.71 1010.55 1011.50 1011.96 1013.77 1013.41 1011.85 1011.46 1011.21 1009.96 1009.57 1009.07 1008.89 1009.00 1009.39 1009.58 1010.06 1011.51 1012.25 1012.10 1013.70 1014.16 1014.65 1015.78 1015.91 1016.61 1017.29 1017.71 1018.03 1017.78 1017.95 1018.27 1017.78 1017.39 1016.44
1001.68 1001.04 1000.90 1000.49 999.74 999.04 998.82 998.85 999.69 1002.11 1004.39 1005.99 1007.27 1009.91 1010.80 1010.71 1010.37 1011.42 1010.76 1010.60 1010.18 1009.74 1009.98 1008.41 1008.33 1008.79 1009.01 1009.52 1010.82 1011.66 1012.45 1013.53 1013.90 1014.19 1014.71 1015.70 1016.01 1016.88 1017.58 1018.01 1018.18 1017.70 1017.79 1018.16 1018.56 1018.41 1016.88
999.99 999.84 999.40 998.74 997.63 996.17 994.95 994.78 995.49 997.68 1000.32 1003.24 1005.96 1008.45 1010.11 1010.18 1008.73 1008.83 1009.26 1009.42 1009.51 1009.66 1009.83 1008.80 1008.84 1009.23 1009.85 1009.96 1010.50 1011.26 1012.89 1014.29 1014.62 1014.79 1015.31 1015.85 1016.40 1016.31 1016.04 1015.98 1016.33 1017.27 1017.49 1018.00 1018.76 1018.14 1016.51
999.03 999.03 998.79 997.65 996.40 990.62 988.19 989.09 990.20 992.40 996.61 999.31 1002.05 1004.07 1004.34 1006.27 1007.32 1006.89 1007.76 1007.84 1008.35 1009.09 1009.78 1009.66 1009.35 1009.42 1008.86 1010.30 1010.55 1011.10 1012.56 1014.24 1015.06 1015.62 1015.77 1016.25 1016.30 1016.93 1016.79 1016.84 1017.01 1017.19 1017.46 1017.96 1018.54 1018.31 1017.88
998.41 998.46 997.81 996.78 994.49 986.43 985.38 986.47 988.62 991.80 994.91 996.64 998.43 1000.25 1002.67 1002.83 1005.63 1006.34 1006.92 1006.95 1007.32 1008.50 1008.98 1009.10 1009.22 1009.41 1009.20 1009.57 1009.47 1010.63 1011.63 1013.18 1013.92 1015.79 1015.87 1016.49 1016.46 1017.00 1016.90 1016.88 1017.15 1017.17 1017.42 1017.93 1018.34 1018.31 1017.90
997.91 997.86 997.17 996.25 994.76 991.83 989.56 989.46 991.59 993.33 994.87 995.90 997.24 998.04 999.64 1002.22 1004.22 1005.05 1004.80 1005.96 1006.91 1008.10 1009.21 1009.03 1009.17 1009.97 1010.10 1010.19 1009.56 1010.27 1011.56 1012.76 1013.42 1014.64 1015.42 1016.27 1016.60 1016.76 1016.33 1016.82 1017.33 1017.19 1016.61 1017.54 1018.07 1018.31 1018.76
997.54 997.47 997.05 996.51 995.49 993.82 992.85 992.94 993.85 995.05 995.46 995.76 996.52 997.01 998.58 1001.71 1002.76 1003.25 1004.95 1006.32 1006.97 1007.87 1008.52 1009.16 1009.59 1009.86 1011.31 1010.86 1011.09 1012.02 1013.02 1013.82 1014.30 1014.94 1015.42 1016.14 1016.60 1016.54 1016.47 1017.23 1016.99 1016.26 1016.21 1016.83 1017.53 1018.39 1018.97
997.47 997.42 997.24 997.10 996.44 995.50 994.63 994.82 994.96 995.35 996.00 996.77 997.71 997.79 999.30 1001.77 1003.22 1004.36 1005.07 1005.79 1007.10 1007.93 1009.10 1009.66 1009.77 1009.15 1010.31 1010.09 1011.14 1012.38 1013.77 1014.62 1015.15 1015.55 1016.01 1016.31 1016.38 1016.40 1016.50 1016.14 1016.24 1016.86 1017.06 1017.22 1017.25 1017.82 1019.22
997.65 997.70 997.72 997.84 997.38 996.86 996.52 996.82 997.23 997.47 997.84 998.33 999.30 999.22 999.50 1001.59 1004.11 1004.37 1005.00 1005.95 1006.47 1007.74 1009.52 1010.24 1010.36 1010.13 1009.70 1009.93 1010.80 1011.56 1012.56 1013.14 1014.58 1015.98 1016.74 1016.79 1016.69 1016.44 1016.56 1016.20 1015.66 1015.89 1017.01 1017.68 1017.68 1017.93 1019.30
998.02 998.15 998.40 998.59 998.45 997.87 997.48 997.50 997.85 998.64 999.25 999.81 1000.24 1000.18 1000.45 1002.53 1005.03 1004.88 1004.97 1005.56 1006.06 1007.01 1008.36 1009.48 1009.80 1010.07 1009.75 1009.83 1010.87 1011.86 1012.58 1012.58 1013.42 1014.57 1016.01 1016.44 1016.56 1016.22 1016.20 1016.12 1016.05 1016.61 1017.35 1017.83 1017.79 1018.70 1019.47
998.55 998.73 999.11 999.32 999.02 998.76 998.53 998.74 998.67 998.61 998.79 998.83 1000.75 1001.37 1001.08 1002.92 1005.45 1005.55 1005.30 1005.44 1005.38 1005.22 1006.37 1008.64 1009.50 1010.12 1010.02 1010.32 1011.10 1011.90 1012.30 1012.71 1012.99 1013.57 1014.54 1015.17 1015.58 1016.09 1016.23 1016.39 1016.23 1017.11 1017.71 1017.73 1018.08 1018.72 1019.55
999.28 999.45 999.88 999.96 999.91 999.84 999.45 999.09 999.21 999.25 999.49 1000.13 1001.46 1001.99 1001.91 1003.00 1006.17 1006.46 1006.50 1006.32 1005.54 1005.15 1006.49 1008.74 1008.29 1009.16 1009.87 1010.39 1011.37 1012.04 1012.50 1013.10 1013.15 1013.76 1014.81 1014.98 1014.80 1015.04 1015.74 1015.91 1016.54 1017.15 1017.42 1018.15 1018.50 1019.06 1019.77
Wind_Speed
12 16 19 19 19 18 18 18 17 15 14 13 12 11 10 9 8 8 7 10 11 12 12 14 13 11 6 5 2 7 1 2 2 2 2 1 1 2 5 2 4 8 1 2 3 1 3
9 8 12 18 20 19 19 19 17 16 16 16 14 13 11 11 9 8 8 11 13 12 11 13 12 12 3 7 5 4 1 3 1 1 1 2 2 1 2 1 5 2 5 7 5 2 3
10 10 8 11 18 20 20 20 18 18 18 16 16 14 11 11 10 9 9 11 14 14 12 12 9 6 4 4 1 0 1 2 1 1 2 2 3 4 3 4 1 3 9 6 7 3 6
11 12 12 8 9 11 19 20 20 21 19 18 17 15 14 12 10 9 10 11 13 15 14 9 6 6 5 3 3 4 2 5 2 3 1 3 2 5 2 3 3 5 6 7 8 4 4
14 11 13 12 10 9 9 17 21 22 20 19 19 17 15 13 11 9 11 10 14 12 7 2 6 7 3 6 7 4 2 3 5 5 4 6 1 1 6 6 6 5 8 6 7 3 7
18 17 16 15 15 12 12 11 15 21 21 20 20 19 18 15 12 9 8 9 8 6 4 4 5 7 6 6 7 5 4 4 3 8 8 5 4 6 5 7 8 2 5 4 10 8 12
19 18 17 17 17 16 16 15 11 13 21 22 21 19 19 15 11 7 5 5 6 6 7 8 4 2 6 8 5 8 6 6 5 6 8 3 8 7 4 4 5 2 5 10 12 9 13
18 18 20 19 18 18 19 17 14 9 17 22 22 21 18 16 9 4 5 9 6 4 7 14 8 5 4 7 8 10 7 8 7 8 6 7 8 6 5 4 1 3 8 8 8 5 12
19 19 20 20 20 19 19 18 16 11 8 19 23 22 19 14 12 1 10 16 3 3 5 6 12 13 11 11 10 15 12 7 7 9 9 7 9 7 4 2 4 3 5 6 10 18 15
20 19 20 21 20 20 19 19 19 13 9 9 21 22 21 21 7 3 5 14 6 3 6 9 10 10 12 10 9 9 9 7 6 7 7 3 7 6 5 1 4 6 2 9 14 11 7
21 21 21 21 21 20 19 19 19 15 12 11 10 21 29 24 9 8 3 8 9 6 6 14 10 8 16 17 16 9 5 7 12 10 6 7 11 9 6 2 2 4 10 13 13 11 9
24 23 22 22 22 22 21 20 18 17 15 12 9 20 27 8 3 1 12 13 7 3 11 9 10 14 20 13 10 13 9 6 9 7 4 7 2 4 3 2 1 6 10 6 5 5 7
24 24 24 25 24 24 23 22 22 19 16 12 11 23 24 9 7 7 15 7 8 6 3 10 12 17 18 18 13 19 19 14 9 9 11 8 8 6 1 3 4 5 7 4 5 6 3
25 26 26 26 26 26 25 24 23 21 17 10 11 24 15 5 13 16 9 3 7 12 9 3 14 21 17 20 13 16 18 13 6 5 11 11 9 11 4 2 3 3 5 3 6 5 9
26 28 28 28 28 26 26 26 21 16 13 13 11 11 5 8 15 13 10 4 13 10 13 15 17 20 12 19 10 15 17 13 8 10 6 8 6 7 3 2 3 5 2 3 3 6 7
28 28 29 29 28 29 30 29 26 21 21 20 7 7 5 16 16 12 7 14 9 6 12 19 10 15 19 23 16 16 16 11 10 7 5 5 7 8 6 6 4 3 4 5 6 5 6
28 32 32 30 27 29 30 30 31 23 22 23 7 6 10 16 10 8 8 9 8 13 16 16 10 11 14 22 15 18 18 10 10 12 6 8 3 9 4 8 9 8 5 4 3 5 5
31 35 27 27 30 33 34 35 32 27 27 28 10 12 15 17 8 5 6 9 7 16 16 8 9 6 17 23 15 10 12 9 14 16 12 4 3 7 6 5 3 4 7 6 4 7 7
36 22 25 28 32 36 37 38 38 35 40 20 13 4 11 17 12 12 11 9 11 8 11 12 8 8 15 17 10 12 12 4 15 15 13 9 7 6 7 6 5 10 11 6 4 4 11
18 18 23 29 32 37 41 45 45 40 49 20 9 8 4 6 4 22 18 19 15 10 4 3 7 13 14 16 9 16 13 7 11 10 9 5 5 2 5 4 7 9 12 12 8 6 10
13 18 19 24 31 45 45 44 39 45 58 18 7 8 15 18 16 21 25 23 24 13 7 6 3 13 13 9 15 12 13 17 9 11 7 4 4 4 5 4 6 8 10 11 11 13 7
17 10 15 12 30 26 22 33 43 56 50 6 11 12 16 19 20 21 18 21 27 16 13 12 11 14 14 16 8 20 21 15 11 9 10 5 5 6 5 9 10 12 11 11 14 13 16
11 6 10 14 21 31 35 30 34 31 20 5 2 11 15 21 21 20 19 22 23 23 6 13 16 12 11 9 10 16 10 12 15 16 10 8 7 7 3 6 5 9 17 14 5 7 7
9 7 2 9 18 23 28 29 27 19 8 6 10 13 9 16 19 22 27 26 27 23 11 16 20 11 10 23 23 19 16 14 13 9 9 9 9 5 5 6 8 4 3 9 8 7 6
11 8 9 9 13 16 23 23 26 24 22 8 3 5 5 14 15 18 24 19 17 16 14 14 3 17 20 17 13 11 6 6 5 6 7 6 7 5 4 10 3 4 8 7 5 0 5
14 11 16 12 15 11 18 18 21 21 15 7 4 3 7 14 8 20 20 21 17 11 8 6 19 16 7 5 5 8 7 10 9 8 5 6 5 5 6 5 6 6 8 2 4 5 6
14 14 17 12 7 11 18 18 14 14 12 7 5 4 7 9 5 18 15 19 17 17 10 15 12 5 2 4 6 7 5 6 11 13 10 8 6 9 7 6 2 5 5 6 6 6 3
14 13 18 14 14 15 12 11 10 8 6 6 8 3 5 8 10 3 4 9 14 12 12 15 9 2 4 6 6 4 4 5 6 10 13 9 9 6 8 8 8 9 8 5 6 5 3
11 14 18 19 15 9 7 9 11 8 9 6 7 4 6 9 11 14 17 13 6 14 18 6 6 8 4 5 3 4 4 4 9 8 2 6 2 4 6 1 8 6 2 5 4 3 2
Wind_Direction
344 252 232 226 221 220 223 224 219 217 215 218 215 219 235 239 248 264 281 290 295 304 309 315 321 326 290 230 195 115 236 196 245 273 348 126 175 227 230 216 219 248 209 252 312 267 290
319 305 295 236 232 224 224 227 222 218 211 212 213 213 210 237 244 265 280 288 291 297 308 312 312 304 264 268 101 115 291 210 204 248 136 240 130 98 129 225 274 20 271 276 248 280 267
299 317 329 348 243 227 226 223 224 218 212 211 211 207 210 222 243 244 273 287 291 299 304 306 293 280 253 302 145 9 218 208 110 346 191 120 123 236 147 162 2 293 279 245 216 286 301
293 299 302 316 310 326 234 227 224 217 217 211 210 203 202 206 226 255 271 278 288 296 302 289 265 254 272 129 188 215 199 156 125 103 143 121 154 111 325 115 172 252 244 266 149 309 90
293 284 289 290 292 304 329 253 227 225 216 212 211 204 201 195 204 225 265 280 291 293 270 236 236 251 247 133 193 150 215 176 131 110 95 126 184 100 177 225 218 192 290 295 307 274 318
291 291 289 286 286 286 289 287 274 223 223 215 210 200 199 195 190 220 262 281 292 279 205 211 259 250 185 190 155 150 124 149 159 143 143 183 199 214 198 226 274 44 284 283 296 326 317
280 283 282 286 287 281 280 277 280 257 223 218 212 205 199 191 184 204 284 219 213 202 215 236 171 275 150 127 165 176 157 161 160 200 212 171 233 233 87 51 58 55 293 299 303 344 312
278 273 274 279 280 272 277 272 264 276 249 216 215 204 198 181 169 144 263 251 226 19 263 227 232 234 220 177 167 174 176 201 202 198 176 197 230 122 112 104 15 305 306 314 291 300 317
271 275 269 273 275 276 274 267 258 249 277 242 211 200 184 156 118 127 233 248 181 176 262 224 216 216 182 193 201 174 187 172 195 187 202 264 105 149 166 151 306 278 288 333 305 314 280
269 269 269 269 269 272 268 266 261 252 257 279 230 192 153 123 98 137 230 259 250 183 253 197 204 204 180 180 206 152 188 169 172 171 171 143 148 167 185 188 312 286 28 311 301 311 317
266 266 267 266 266 263 263 258 249 240 247 255 233 177 153 154 140 169 158 83 346 324 214 132 145 132 160 179 128 163 169 177 177 156 198 119 171 171 192 69 310 356 315 297 293 277 293
263 265 263 261 260 260 257 250 245 247 243 234 226 185 157 129 99 60 93 74 58 40 246 162 143 169 165 177 170 143 152 91 126 125 102 121 112 213 102 126 217 304 283 278 229 253 243
268 264 262 261 258 257 252 249 244 241 236 230 228 189 168 159 164 132 109 108 99 190 290 176 170 173 170 170 160 167 165 163 165 166 177 154 160 143 230 234 162 282 297 253 221 217 284
270 263 261 258 256 254 249 247 244 238 222 227 242 172 191 165 136 141 116 176 150 198 235 163 162 167 172 164 167 169 176 170 194 194 157 184 182 180 139 33 347 51 335 333 276 289 317
282 267 260 259 253 250 248 244 228 229 215 211 235 182 174 162 149 147 136 149 194 192 176 168 157 164 166 175 166 173 188 190 164 180 207 185 131 129 124 149 231 129 185 28 293 242 267
279 276 270 261 254 254 251 239 230 222 219 216 224 175 175 152 155 146 194 211 218 213 189 159 157 192 184 176 171 179 176 181 153 162 185 156 134 183 134 161 149 270 123 203 172 280 288
277 277 271 259 257 253 249 241 233 221 214 196 163 188 149 154 135 171 203 204 205 216 179 167 189 180 188 179 180 182 177 167 167 150 157 150 190 146 172 204 170 166 184 205 286 265 288
276 275 258 262 263 256 250 241 239 235 213 193 173 202 159 150 147 201 192 181 221 186 203 161 165 150 188 171 169 163 181 171 169 155 158 127 102 158 178 132 269 246 183 197 246 169 241
283 257 266 271 270 263 248 244 254 240 201 175 178 124 172 175 175 188 172 180 191 175 216 163 140 163 170 169 149 152 138 152 161 163 157 168 153 138 155 162 177 214 197 216 224 259 249
251 268 281 286 278 274 262 254 248 221 187 165 141 137 145 206 252 185 175 188 179 180 202 112 113 134 139 172 143 155 131 136 162 155 114 128 172 255 213 98 143 196 203 203 202 244 266
261 263 277 283 309 290 243 237 211 178 164 158 150 162 170 178 199 194 183 173 176 166 210 199 121 183 154 153 139 147 126 130 132 135 126 180 168 199 235 197 204 214 203 214 212 236 255
241 248 280 299 343 352 166 153 154 154 160 138 137 149 172 168 164 179 174 185 177 168 161 194 195 184 164 160 161 159 149 158 154 170 164 176 137 186 232 219 227 243 241 228 226 251 266
212 217 276 318 26 39 52 91 125 144 152 105 118 136 155 156 166 173 183 167 170 162 188 186 150 136 129 118 126 141 151 148 153 160 158 161 163 177 193 176 190 249 233 208 175 221 255
175 186 222 12 35 41 50 67 78 86 97 113 150 141 138 160 173 182 170 166 166 166 127 158 159 142 119 116 101 90 98 107 129 128 148 164 182 169 156 171 225 76 93 183 209 235 252
150 140 124 90 47 54 59 59 68 73 66 89 91 110 112 145 154 145 165 152 143 129 139 145 297 134 155 125 112 119 119 133 121 133 143 184 174 157 209 210 80 186 199 200 221 172 187
136 116 122 127 67 27 71 74 80 79 68 60 40 22 108 125 169 149 142 151 150 135 133 129 123 138 143 104 125 163 178 165 162 138 196 163 233 227 180 236 228 90 135 142 167 205 168
130 128 118 118 106 61 56 50 57 97 129 137 94 66 88 97 114 150 157 151 150 154 123 139 149 121 185 122 147 167 156 160 162 162 168 165 183 206 208 240 164 146 140 163 233 78 137
125 124 119 119 72 59 27 40 70 81 90 78 83 35 96 104 65 151 107 135 152 136 139 141 140 138 134 137 168 146 148 165 153 152 167 164 168 188 218 230 233 146 142 250 66 115 108
126 122 117 99 82 71 22 19 62 108 135 179 93 76 88 72 105 95 73 46 25 134 127 166 117 126 124 136 154 133 138 172 149 162 191 188 205 169 211 103 116 158 50 115 100 110 113